COSMOS 2296 (GLONASS)

Satellite information

Favourite Embed

Satellite Type and Status

PAYLOADIN ORBIT

Key statistics

Satellite COSMOS 2296 (GLONASS) at a glance.

Uptime

11249

Days in orbit

Revolutions

≈ 2.1

Per day

Orbit

MEO

Medium Earth Orbit

Inclination

64.7

Latest

Satellite identification and parameters

Extended collection of information and parameters for COSMOS 2296 (GLONASS).

Object identification

Identified? True

Debris? False

Object name: COSMOS 2296 (GLONASS)

International designator: 1994-076B

Object number (NORAD): 23397

Object ID (CCSDS): 23397

Country: COMMONWEALTH OF INDEPENDENT STATES (CIS)

Current information (Y/N): Y

RCS size: LARGE

Orbital parameters

Period: 675.74 minutes

Inclination: 64.6667 deg

SMA: 25508.204 km

Apoapsis: 19154.644 km

Periapsis: 19105.495 km

RAAN: 78.9111 deg

Eccentricy: 0.0009634

Argument of periapsis: 254.3669 deg

Mean anomaly: 293.7069 deg

Mean motion: 2.13099744 rev/day

Mean motion (dot): 0.00000028 rev/day2

B* drag term: 0.0 1/REarth

Two-line elements (TLE)

Creation date: Sept. 1, 2025, 7:24 p.m.

Reference frame: TEME

Reference center: EARTH

Epoch: Sept. 1, 2025, 10:29 a.m. UTC

TLE line 0: 0 COSMOS 2296 (GLONASS)

TLE line 1: 1 23397U 94076B 25244.43682194 .00000028 00000-0 00000-0 0 9994

TLE line 2: 2 23397 64.6667 78.9111 0009634 254.3669 293.7069 2.13099744239330

Live tracking on map

Real-time ground track for satellite COSMOS 2296 (GLONASS).

In-orbit conjunctions

There are no conjunctions computed for COSMOS 2296 (GLONASS), at the moment. Check back to stay up to date, as we update our databases every day.

Go to all conjunctions

Associated space launch

GLONASS navigation satellites

COSMOS 2296 (GLONASS) was lifted into orbit during the mission ‘Proton | Uragan 60 to 62’, on board a Proton space rocket.

The launch took place on Nov. 20, 1994, 12:39 a.m. from 200/39 (200L).

For more information about the launch, click the button.

Launch to space Proton | Uragan 60 to 62
Proton | Uragan 60 to 62

Agency: N/A

Status: Launch Successful

Launch date: Nov. 20, 1994, 12:39 a.m. UTC

Rocket: Proton

Launch pad: 200/39 (200L)

Location: Baikonur Cosmodrome, Republic of Kazakhstan

...

Latest news about this satellite

There are no fresh news available about this satellite. Check back as we update our databases every day.


Newsletter sign-up

Weekly statistics, charts and insights to help you stay on top of the space industry.